TimeCST,TemperatureF,Dew PointF,Humidity,Sea Level PressureIn,VisibilityMPH,Wind Direction,Wind SpeedMPH,Gust SpeedMPH,PrecipitationIn,Events,Conditions,WindDirDegrees,DateUTC
12:54 AM,46.9,30.9,54,30.07,10.0,South,10.4,-,N/A,,Clear,180,2012-11-30 06:54:00
1:54 AM,46.9,30.9,54,30.06,10.0,South,11.5,-,N/A,,Clear,180,2012-11-30 07:54:00
2:54 AM,46.9,30.9,54,30.06,10.0,South,11.5,-,N/A,,Clear,190,2012-11-30 08:54:00
3:54 AM,43.0,30.0,60,30.07,10.0,SSW,8.1,-,N/A,,Clear,200,2012-11-30 09:54:00
4:54 AM,42.1,30.0,62,30.07,10.0,South,5.8,-,N/A,,Clear,190,2012-11-30 10:54:00
5:54 AM,39.9,30.0,68,30.07,10.0,South,6.9,-,N/A,,Clear,190,2012-11-30 11:54:00
6:54 AM,39.0,30.0,70,30.09,10.0,SSW,9.2,-,N/A,,Clear,200,2012-11-30 12:54:00
7:54 AM,42.1,32.0,67,30.09,10.0,SSW,6.9,-,N/A,,Clear,200,2012-11-30 13:54:00
8:54 AM,50.0,35.1,57,30.10,10.0,SW,9.2,-,N/A,,Clear,230,2012-11-30 14:54:00
9:54 AM,55.0,39.0,55,30.10,10.0,WSW,12.7,-,N/A,,Clear,240,2012-11-30 15:54:00
10:54 AM,60.1,42.1,51,30.09,10.0,WSW,12.7,-,N/A,,Clear,250,2012-11-30 16:54:00
11:54 AM,63.0,43.0,48,30.07,10.0,West,10.4,-,N/A,,Clear,260,2012-11-30 17:54:00
12:54 PM,64.0,44.1,48,30.06,10.0,WSW,11.5,-,N/A,,Clear,240,2012-11-30 18:54:00
1:54 PM,64.9,44.1,47,30.05,10.0,WSW,9.2,-,N/A,,Clear,240,2012-11-30 19:54:00
2:54 PM,64.0,45.0,50,30.04,10.0,WSW,5.8,-,N/A,,Clear,240,2012-11-30 20:54:00
3:54 PM,57.9,45.0,62,30.06,10.0,South,4.6,-,N/A,,Clear,190,2012-11-30 21:54:00
4:54 PM,60.1,44.1,55,30.06,10.0,Calm,Calm,-,N/A,,Clear,0,2012-11-30 22:54:00
5:54 PM,57.0,44.1,62,30.06,10.0,SE,3.5,-,N/A,,Clear,140,2012-11-30 23:54:00
6:54 PM,55.0,44.1,67,30.07,10.0,ESE,4.6,-,N/A,,Clear,120,2012-12-01 00:54:00
7:54 PM,54.0,44.1,69,30.06,10.0,ESE,5.8,-,N/A,,Clear,120,2012-12-01 01:54:00
8:54 PM,54.0,44.1,69,30.07,10.0,SE,5.8,-,N/A,,Clear,130,2012-12-01 02:54:00
9:54 PM,51.1,44.1,77,30.06,10.0,SSE,8.1,-,N/A,,Clear,160,2012-12-01 03:54:00
10:54 PM,50.0,45.0,83,30.05,10.0,South,8.1,-,N/A,,Clear,170,2012-12-01 04:54:00
11:54 PM,50.0,44.1,80,30.06,10.0,SE,6.9,-,N/A,,Clear,140,2012-12-01 05:54:00